Time,TemperatureF,DewpointF,PressureIn,WindDirection,WindDirectionDegrees,WindSpeedMPH,WindSpeedGustMPH,Humidity,HourlyPrecipIn,Conditions,Clouds,dailyrainin,SoftwareType,DateUTC
2013-01-12 00:02:00,45.8,42.7,29.58,SSW,195,6.0,11.0,89,-99.99,,,0.00,1-wire,2013-01-12 06:02:00,
2013-01-12 00:07:00,45.5,42.2,29.58,SSW,193,2.0,8.0,88,-99.99,,,0.00,1-wire,2013-01-12 06:07:00,
2013-01-12 00:12:00,45.5,42.3,29.59,SSW,193,4.0,11.0,88,-99.99,,,0.00,1-wire,2013-01-12 06:12:00,
2013-01-12 00:18:00,45.2,41.9,29.59,SSW,193,3.0,6.0,88,-99.99,,,0.00,1-wire,2013-01-12 06:18:00,
2013-01-12 00:24:00,45.2,42.0,29.58,SSW,200,2.0,6.0,89,-99.99,,,0.00,1-wire,2013-01-12 06:24:00,
2013-01-12 00:29:00,44.7,41.5,29.58,SSW,200,2.0,6.0,88,-99.99,,,0.00,1-wire,2013-01-12 06:29:00,
2013-01-12 00:34:00,45.2,42.0,29.58,SSW,200,3.0,6.0,89,-99.99,,,0.00,1-wire,2013-01-12 06:34:00,
2013-01-12 00:39:00,45.1,42.0,29.58,SSW,198,4.0,8.0,89,-99.99,,,0.00,1-wire,2013-01-12 06:39:00,
2013-01-12 00:44:00,45.2,41.9,29.58,SSW,198,4.0,8.0,88,-99.99,,,0.00,1-wire,2013-01-12 06:44:00,
2013-01-12 00:49:00,45.1,41.9,29.59,SSW,198,8.0,12.0,88,-99.99,,,0.00,1-wire,2013-01-12 06:49:00,
2013-01-12 00:54:00,45.3,42.0,29.58,SSW,196,3.0,6.0,88,-99.99,,,0.00,1-wire,2013-01-12 06:54:00,
2013-01-12 00:59:00,45.2,41.8,29.58,SSW,196,5.0,9.0,88,-99.99,,,0.00,1-wire,2013-01-12 06:59:00,
2013-01-12 01:04:00,45.2,41.8,29.58,SSW,196,4.0,9.0,88,-99.99,,,0.00,1-wire,2013-01-12 07:04:00,
2013-01-12 01:09:00,45.4,41.9,29.58,SSW,198,5.0,11.0,87,-99.99,,,0.00,1-wire,2013-01-12 07:09:00,
2013-01-12 01:14:00,45.5,41.9,29.58,SSW,198,3.0,6.0,87,-99.99,,,0.00,1-wire,2013-01-12 07:14:00,
2013-01-12 01:19:00,45.3,41.5,29.60,SSW,198,3.0,6.0,86,-99.99,,,0.00,1-wire,2013-01-12 07:19:00,
2013-01-12 01:24:00,45.5,41.7,29.60,SSW,193,4.0,8.0,87,-99.99,,,0.00,1-wire,2013-01-12 07:24:00,
2013-01-12 01:29:00,45.4,41.6,29.60,SSW,193,4.0,9.0,86,-99.99,,,0.00,1-wire,2013-01-12 07:29:00,
2013-01-12 01:34:00,45.7,41.9,29.60,SSW,193,5.0,9.0,87,-99.99,,,0.00,1-wire,2013-01-12 07:34:00,
2013-01-12 01:39:00,45.8,41.7,29.60,SSW,199,3.0,8.0,86,-99.99,,,0.00,1-wire,2013-01-12 07:39:00,
2013-01-12 01:44:00,45.9,41.9,29.60,SSW,199,4.0,9.0,86,-99.99,,,0.00,1-wire,2013-01-12 07:44:00,
2013-01-12 01:49:00,45.6,41.6,29.60,SSW,199,3.0,9.0,86,-99.99,,,0.00,1-wire,2013-01-12 07:49:00,
2013-01-12 01:54:00,45.8,41.7,29.60,SSW,196,6.0,11.0,86,-99.99,,,0.00,1-wire,2013-01-12 07:54:00,
2013-01-12 01:59:00,45.9,41.9,29.60,SSW,196,2.0,6.0,86,-99.99,,,0.00,1-wire,2013-01-12 07:59:00,
2013-01-12 02:04:00,45.6,41.5,29.60,SSW,196,3.0,9.0,85,-99.99,,,0.00,1-wire,2013-01-12 08:04:00,
2013-01-12 02:09:00,45.8,41.8,29.60,SSW,193,5.0,9.0,86,-99.99,,,0.00,1-wire,2013-01-12 08:09:00,
2013-01-12 02:14:00,46.0,41.8,29.60,SSW,193,7.0,14.0,85,-99.99,,,0.00,1-wire,2013-01-12 08:14:00,
2013-01-12 02:19:00,45.9,41.6,29.60,SSW,193,4.0,9.0,85,-99.99,,,0.00,1-wire,2013-01-12 08:19:00,
2013-01-12 02:24:00,46.0,41.7,29.60,SSW,193,4.0,13.0,85,-99.99,,,0.00,1-wire,2013-01-12 08:24:00,
2013-01-12 02:29:00,46.0,41.7,29.60,SSW,193,3.0,6.0,85,-99.99,,,0.00,1-wire,2013-01-12 08:29:00,
2013-01-12 02:34:00,46.2,41.6,29.60,SSW,193,2.0,8.0,84,-99.99,,,0.00,1-wire,2013-01-12 08:34:00,
2013-01-12 02:39:00,46.2,41.7,29.60,South,190,4.0,11.0,84,-99.99,,,0.00,1-wire,2013-01-12 08:39:00,
2013-01-12 02:44:00,46.1,41.5,29.60,South,190,3.0,9.0,84,-99.99,,,0.00,1-wire,2013-01-12 08:44:00,
2013-01-12 02:49:00,46.3,41.8,29.60,South,190,4.0,9.0,84,-99.99,,,0.00,1-wire,2013-01-12 08:49:00,
2013-01-12 02:54:00,46.1,41.6,29.60,South,191,5.0,11.0,84,-99.99,,,0.00,1-wire,2013-01-12 08:54:00,
2013-01-12 02:59:00,46.3,41.6,29.60,South,191,3.0,6.0,84,-99.99,,,0.00,1-wire,2013-01-12 08:59:00,
2013-01-12 03:04:00,46.6,41.9,29.60,South,191,4.0,9.0,84,-99.99,,,0.00,1-wire,2013-01-12 09:04:00,
2013-01-12 03:09:00,46.3,41.6,29.60,South,190,4.0,9.0,83,-99.99,,,0.00,1-wire,2013-01-12 09:09:00,
2013-01-12 03:14:00,46.4,41.6,29.60,South,190,2.0,3.0,83,-99.99,,,0.00,1-wire,2013-01-12 09:14:00,
2013-01-12 03:19:00,46.2,41.5,29.60,South,190,6.0,14.0,83,-99.99,,,0.00,1-wire,2013-01-12 09:19:00,
2013-01-12 03:24:00,46.3,41.6,29.60,SSW,194,4.0,9.0,83,-99.99,,,0.00,1-wire,2013-01-12 09:24:00,
2013-01-12 03:29:00,46.3,41.4,29.60,SSW,194,3.0,6.0,83,-99.99,,,0.00,1-wire,2013-01-12 09:29:00,
2013-01-12 03:34:00,46.2,41.5,29.60,SSW,194,2.0,6.0,83,-99.99,,,0.00,1-wire,2013-01-12 09:34:00,
2013-01-12 03:40:00,46.1,41.2,29.60,SSW,198,2.0,6.0,83,-99.99,,,0.00,1-wire,2013-01-12 09:40:00,
2013-01-12 03:46:00,46.0,41.3,29.61,SSW,198,3.0,6.0,84,-99.99,,,0.00,1-wire,2013-01-12 09:46:00,
2013-01-12 03:52:00,45.8,41.1,29.61,SSW,201,2.0,6.0,84,-99.99,,,0.00,1-wire,2013-01-12 09:52:00,
2013-01-12 03:57:00,45.8,41.2,29.61,SSW,201,4.0,8.0,84,-99.99,,,0.00,1-wire,2013-01-12 09:57:00,
2013-01-12 04:02:00,45.9,41.3,29.61,SSW,201,2.0,5.0,84,-99.99,,,0.00,1-wire,2013-01-12 10:02:00,
2013-01-12 04:07:00,45.5,41.0,29.61,South,188,3.0,8.0,84,-99.99,,,0.00,1-wire,2013-01-12 10:07:00,
2013-01-12 04:12:00,45.8,41.2,29.61,South,188,4.0,8.0,84,-99.99,,,0.00,1-wire,2013-01-12 10:12:00,
2013-01-12 04:18:00,45.7,41.2,29.61,South,188,2.0,6.0,84,-99.99,,,0.00,1-wire,2013-01-12 10:18:00,
2013-01-12 04:24:00,45.6,41.1,29.60,South,190,4.0,9.0,84,-99.99,,,0.00,1-wire,2013-01-12 10:24:00,
2013-01-12 04:29:00,45.5,41.1,29.60,South,190,3.0,6.0,84,-99.99,,,0.00,1-wire,2013-01-12 10:29:00,
2013-01-12 04:35:00,45.5,40.9,29.61,South,190,4.0,9.0,84,-99.99,,,0.00,1-wire,2013-01-12 10:35:00,
2013-01-12 04:41:00,45.7,41.0,29.61,SSW,193,2.0,8.0,84,-99.99,,,0.00,1-wire,2013-01-12 10:41:00,
2013-01-12 04:46:00,45.7,41.0,29.62,SSW,193,3.0,6.0,84,-99.99,,,0.00,1-wire,2013-01-12 10:46:00,
2013-01-12 04:51:00,45.7,41.1,29.62,SSW,200,3.0,6.0,84,-99.99,,,0.00,1-wire,2013-01-12 10:51:00,
2013-01-12 04:56:00,45.8,41.3,29.62,SSW,200,4.0,8.0,84,-99.99,,,0.00,1-wire,2013-01-12 10:56:00,
2013-01-12 05:02:00,45.6,40.9,29.62,SSW,200,3.0,6.0,83,-99.99,,,0.00,1-wire,2013-01-12 11:02:00,
2013-01-12 05:08:00,45.6,40.8,29.63,SSW,208,2.0,6.0,83,-99.99,,,0.00,1-wire,2013-01-12 11:08:00,
2013-01-12 05:13:00,45.6,40.9,29.63,SSW,208,4.0,6.0,84,-99.99,,,0.00,1-wire,2013-01-12 11:13:00,
2013-01-12 05:18:00,45.7,40.7,29.64,SSW,208,3.0,6.0,83,-99.99,,,0.00,1-wire,2013-01-12 11:18:00,
2013-01-12 05:24:00,45.9,40.8,29.64,SSW,212,4.0,9.0,82,-99.99,,,0.00,1-wire,2013-01-12 11:24:00,
2013-01-12 05:29:00,46.0,40.6,29.64,SSW,212,4.0,11.0,82,-99.99,,,0.00,1-wire,2013-01-12 11:29:00,
2013-01-12 05:34:00,46.3,40.7,29.66,SSW,212,5.0,9.0,81,-99.99,,,0.00,1-wire,2013-01-12 11:34:00,
2013-01-12 05:40:00,46.4,40.3,29.66,SW,218,6.0,14.0,79,-99.99,,,0.00,1-wire,2013-01-12 11:40:00,
2013-01-12 05:45:00,45.8,39.2,29.66,SW,218,9.0,14.0,77,-99.99,,,0.00,1-wire,2013-01-12 11:45:00,
2013-01-12 05:50:00,45.4,38.5,29.68,SW,218,7.0,12.0,77,-99.99,,,0.00,1-wire,2013-01-12 11:50:00,
2013-01-12 05:55:00,44.6,37.6,29.68,SW,227,12.0,25.0,76,-99.99,,,0.00,1-wire,2013-01-12 11:55:00,
2013-01-12 06:00:00,44.0,37.0,29.69,SW,227,5.0,11.0,76,-99.99,,,0.00,1-wire,2013-01-12 12:00:00,
2013-01-12 06:06:00,43.5,36.3,29.69,SW,226,9.0,20.0,75,-99.99,,,0.00,1-wire,2013-01-12 12:06:00,
2013-01-12 06:12:00,42.6,35.4,29.69,SW,226,9.0,19.0,76,-99.99,,,0.00,1-wire,2013-01-12 12:12:00,
2013-01-12 06:17:00,41.9,35.0,29.69,SW,226,8.0,13.0,76,-99.99,,,0.00,1-wire,2013-01-12 12:17:00,
2013-01-12 06:22:00,41.4,34.4,29.69,SW,236,9.0,16.0,76,-99.99,,,0.00,1-wire,2013-01-12 12:22:00,
2013-01-12 06:27:00,41.1,34.3,29.69,SW,236,11.0,20.0,76,-99.99,,,0.00,1-wire,2013-01-12 12:27:00,
2013-01-12 06:32:00,40.6,33.8,29.70,SW,236,10.0,16.0,77,-99.99,,,0.00,1-wire,2013-01-12 12:32:00,
2013-01-12 06:37:00,40.2,33.4,29.70,SW,231,8.0,16.0,76,-99.99,,,0.00,1-wire,2013-01-12 12:37:00,
2013-01-12 06:42:00,39.4,32.7,29.71,SW,231,6.0,12.0,77,-99.99,,,0.00,1-wire,2013-01-12 12:42:00,
2013-01-12 06:47:00,38.9,32.7,29.71,SW,231,6.0,13.0,78,-99.99,,,0.00,1-wire,2013-01-12 12:47:00,
2013-01-12 06:52:00,38.7,32.8,29.72,WSW,238,5.0,9.0,79,-99.99,,,0.00,1-wire,2013-01-12 12:52:00,
2013-01-12 06:57:00,38.3,32.4,29.72,WSW,238,6.0,13.0,79,-99.99,,,0.00,1-wire,2013-01-12 12:57:00,
2013-01-12 07:02:00,37.9,31.9,29.73,WSW,238,7.0,14.0,79,-99.99,,,0.00,1-wire,2013-01-12 13:02:00,
2013-01-12 07:07:00,37.5,31.3,29.73,SW,236,9.0,16.0,78,-99.99,,,0.00,1-wire,2013-01-12 13:07:00,
2013-01-12 07:12:00,37.2,30.9,29.74,SW,236,9.0,14.0,78,-99.99,,,0.00,1-wire,2013-01-12 13:12:00,
2013-01-12 07:17:00,36.9,30.7,29.74,SW,236,7.0,14.0,78,-99.99,,,0.00,1-wire,2013-01-12 13:17:00,
2013-01-12 07:22:00,36.7,30.5,29.75,WSW,243,9.0,17.0,78,-99.99,,,0.00,1-wire,2013-01-12 13:22:00,
2013-01-12 07:27:00,36.4,30.3,29.75,WSW,243,8.0,13.0,78,-99.99,,,0.00,1-wire,2013-01-12 13:27:00,
2013-01-12 07:32:00,36.4,30.3,29.75,WSW,243,8.0,14.0,78,-99.99,,,0.00,1-wire,2013-01-12 13:32:00,
2013-01-12 07:37:00,36.4,30.4,29.77,WSW,243,5.0,9.0,79,-99.99,,,0.00,1-wire,2013-01-12 13:37:00,
2013-01-12 07:42:00,35.7,30.0,29.77,WSW,243,6.0,9.0,80,-99.99,,,0.00,1-wire,2013-01-12 13:42:00,
2013-01-12 07:47:00,35.5,29.8,29.77,WSW,243,4.0,6.0,80,-99.99,,,0.00,1-wire,2013-01-12 13:47:00,
2013-01-12 07:52:00,35.3,29.8,29.78,WSW,241,6.0,17.0,80,-99.99,,,0.00,1-wire,2013-01-12 13:52:00,
2013-01-12 07:57:00,35.0,29.2,29.78,WSW,241,9.0,16.0,79,-99.99,,,0.00,1-wire,2013-01-12 13:57:00,
2013-01-12 08:02:00,34.7,28.3,29.79,WSW,241,7.0,13.0,77,-99.99,,,0.00,1-wire,2013-01-12 14:02:00,
2013-01-12 08:07:00,34.3,27.5,29.79,WSW,243,11.0,19.0,76,-99.99,,,0.00,1-wire,2013-01-12 14:07:00,
2013-01-12 08:12:00,34.2,27.3,29.79,WSW,243,6.0,12.0,75,-99.99,,,0.00,1-wire,2013-01-12 14:12:00,
2013-01-12 08:17:00,34.0,27.2,29.79,WSW,243,8.0,14.0,76,-99.99,,,0.00,1-wire,2013-01-12 14:17:00,
2013-01-12 08:22:00,33.7,26.8,29.80,WSW,245,8.0,17.0,75,-99.99,,,0.00,1-wire,2013-01-12 14:22:00,
2013-01-12 08:27:00,33.4,26.5,29.80,WSW,245,10.0,16.0,76,-99.99,,,0.00,1-wire,2013-01-12 14:27:00,
2013-01-12 08:32:00,33.2,26.6,29.81,WSW,245,10.0,19.0,76,-99.99,,,0.00,1-wire,2013-01-12 14:32:00,
2013-01-12 08:37:00,33.5,27.1,29.81,WSW,248,6.0,11.0,77,-99.99,,,0.00,1-wire,2013-01-12 14:37:00,
2013-01-12 08:42:00,33.5,27.2,29.82,WSW,248,5.0,9.0,77,-99.99,,,0.00,1-wire,2013-01-12 14:42:00,
2013-01-12 08:47:00,33.6,27.2,29.82,WSW,248,8.0,14.0,77,-99.99,,,0.00,1-wire,2013-01-12 14:47:00,
2013-01-12 08:52:00,33.4,26.9,29.82,WSW,241,4.0,8.0,77,-99.99,,,0.00,1-wire,2013-01-12 14:52:00,
2013-01-12 08:57:00,33.1,26.2,29.82,WSW,241,8.0,17.0,76,-99.99,,,0.00,1-wire,2013-01-12 14:57:00,
2013-01-12 09:03:00,33.7,26.6,29.83,WSW,241,8.0,16.0,75,-99.99,,,0.00,1-wire,2013-01-12 15:03:00,
2013-01-12 09:08:00,33.7,26.4,29.83,WSW,246,6.0,9.0,74,-99.99,,,0.00,1-wire,2013-01-12 15:08:00,
2013-01-12 09:13:00,33.2,25.1,29.84,WSW,246,8.0,14.0,72,-99.99,,,0.00,1-wire,2013-01-12 15:13:00,
2013-01-12 09:18:00,32.8,25.0,29.83,WSW,246,10.0,16.0,73,-99.99,,,0.00,1-wire,2013-01-12 15:18:00,
2013-01-12 09:23:00,32.5,24.8,29.84,WSW,255,8.0,14.0,73,-99.99,,,0.00,1-wire,2013-01-12 15:23:00,
2013-01-12 09:28:00,32.4,24.7,29.84,WSW,255,9.0,14.0,73,-99.99,,,0.00,1-wire,2013-01-12 15:28:00,
2013-01-12 09:33:00,32.1,24.0,29.84,WSW,255,11.0,22.0,72,-99.99,,,0.00,1-wire,2013-01-12 15:33:00,
2013-01-12 09:38:00,31.9,23.8,29.85,WSW,257,8.0,16.0,72,-99.99,,,0.00,1-wire,2013-01-12 15:38:00,
2013-01-12 09:44:00,31.9,23.7,29.84,WSW,257,8.0,14.0,71,-99.99,,,0.00,1-wire,2013-01-12 15:44:00,
2013-01-12 09:49:00,31.3,23.2,29.84,WSW,257,10.0,16.0,72,-99.99,,,0.00,1-wire,2013-01-12 15:49:00,
2013-01-12 09:54:00,31.7,23.8,29.85,West,263,4.0,9.0,72,-99.99,,,0.00,1-wire,2013-01-12 15:54:00,
2013-01-12 09:59:00,31.2,22.8,29.86,West,263,6.0,11.0,71,-99.99,,,0.00,1-wire,2013-01-12 15:59:00,
2013-01-12 10:05:00,32.0,22.5,29.86,West,263,10.0,19.0,68,-99.99,,,0.00,1-wire,2013-01-12 16:05:00,
2013-01-12 10:10:00,31.6,22.1,29.87,WSW,249,6.0,12.0,68,-99.99,,,0.00,1-wire,2013-01-12 16:10:00,
2013-01-12 10:15:00,31.0,21.1,29.87,WSW,249,6.0,13.0,66,-99.99,,,0.00,1-wire,2013-01-12 16:15:00,
2013-01-12 10:20:00,30.4,20.2,29.87,WSW,249,7.0,13.0,66,-99.99,,,0.00,1-wire,2013-01-12 16:20:00,
2013-01-12 10:26:00,31.3,21.0,29.87,WSW,251,5.0,9.0,65,-99.99,,,0.00,1-wire,2013-01-12 16:26:00,
2013-01-12 10:32:00,31.3,21.3,29.88,WSW,251,7.0,11.0,66,-99.99,,,0.00,1-wire,2013-01-12 16:32:00,
2013-01-12 10:37:00,32.0,21.7,29.88,WSW,245,5.0,11.0,65,-99.99,,,0.00,1-wire,2013-01-12 16:37:00,
2013-01-12 10:42:00,32.0,21.2,29.88,WSW,245,6.0,14.0,64,-99.99,,,0.00,1-wire,2013-01-12 16:42:00,
2013-01-12 10:47:00,31.6,20.6,29.88,WSW,245,6.0,13.0,63,-99.99,,,0.00,1-wire,2013-01-12 16:47:00,
2013-01-12 10:53:00,31.9,20.5,29.87,WSW,242,8.0,12.0,62,-99.99,,,0.00,1-wire,2013-01-12 16:53:00,
2013-01-12 10:58:00,31.7,19.4,29.87,WSW,242,9.0,16.0,60,-99.99,,,0.00,1-wire,2013-01-12 16:58:00,
2013-01-12 11:03:00,31.2,19.1,29.88,WSW,242,7.0,14.0,60,-99.99,,,0.00,1-wire,2013-01-12 17:03:00,
2013-01-12 11:09:00,31.3,19.9,29.88,WSW,250,10.0,19.0,62,-99.99,,,0.00,1-wire,2013-01-12 17:09:00,
2013-01-12 11:14:00,31.0,20.2,29.89,WSW,250,4.0,8.0,64,-99.99,,,0.00,1-wire,2013-01-12 17:14:00,
2013-01-12 11:19:00,31.0,20.2,29.89,WSW,250,7.0,14.0,64,-99.99,,,0.00,1-wire,2013-01-12 17:19:00,
2013-01-12 11:24:00,30.2,19.4,29.88,WSW,246,8.0,22.0,64,-99.99,,,0.00,1-wire,2013-01-12 17:24:00,
2013-01-12 11:30:00,29.8,19.7,29.89,WSW,246,6.0,13.0,66,-99.99,,,0.00,1-wire,2013-01-12 17:30:00,
2013-01-12 11:35:00,29.9,19.8,29.89,WSW,246,6.0,13.0,66,-99.99,,,0.00,1-wire,2013-01-12 17:35:00,
2013-01-12 11:40:00,29.9,20.3,29.89,WSW,252,3.0,8.0,67,-99.99,,,0.00,1-wire,2013-01-12 17:40:00,
2013-01-12 11:45:00,30.3,20.2,29.88,WSW,252,4.0,9.0,65,-99.99,,,0.00,1-wire,2013-01-12 17:45:00,
2013-01-12 11:50:00,30.9,20.2,29.87,WSW,252,4.0,8.0,64,-99.99,,,0.00,1-wire,2013-01-12 17:50:00,
2013-01-12 11:55:00,31.3,20.4,29.87,WSW,253,5.0,16.0,64,-99.99,,,0.00,1-wire,2013-01-12 17:55:00,
2013-01-12 12:00:00,30.8,20.1,29.87,WSW,253,6.0,11.0,64,-99.99,,,0.00,1-wire,2013-01-12 18:00:00,
2013-01-12 12:05:00,31.2,20.4,29.87,WSW,253,6.0,14.0,64,-99.99,,,0.00,1-wire,2013-01-12 18:05:00,
2013-01-12 12:10:00,30.9,20.4,29.88,WSW,239,5.0,9.0,65,-99.99,,,0.00,1-wire,2013-01-12 18:10:00,
2013-01-12 12:15:00,30.4,19.9,29.88,WSW,239,8.0,13.0,64,-99.99,,,0.00,1-wire,2013-01-12 18:15:00,
2013-01-12 12:20:00,30.2,19.8,29.88,WSW,239,5.0,9.0,65,-99.99,,,0.00,1-wire,2013-01-12 18:20:00,
2013-01-12 12:25:00,30.5,19.9,29.88,WSW,254,5.0,9.0,64,-99.99,,,0.00,1-wire,2013-01-12 18:25:00,
2013-01-12 12:30:00,30.6,20.5,29.88,WSW,254,6.0,14.0,66,-99.99,,,0.00,1-wire,2013-01-12 18:30:00,
2013-01-12 12:35:00,31.0,20.8,29.88,WSW,254,5.0,8.0,66,-99.99,,,0.00,1-wire,2013-01-12 18:35:00,
2013-01-12 12:40:00,30.5,20.3,29.89,WSW,248,6.0,9.0,65,-99.99,,,0.00,1-wire,2013-01-12 18:40:00,
2013-01-12 12:45:00,30.8,20.7,29.90,WSW,248,4.0,9.0,66,-99.99,,,0.00,1-wire,2013-01-12 18:45:00,
2013-01-12 12:50:00,30.4,20.4,29.90,WSW,248,6.0,11.0,66,-99.99,,,0.00,1-wire,2013-01-12 18:50:00,
2013-01-12 12:55:00,30.6,20.6,29.90,WSW,247,3.0,8.0,66,-99.99,,,0.00,1-wire,2013-01-12 18:55:00,
2013-01-12 13:00:00,30.9,21.1,29.90,WSW,247,3.0,6.0,67,-99.99,,,0.00,1-wire,2013-01-12 19:00:00,
2013-01-12 13:05:00,30.7,20.7,29.90,WSW,247,4.0,9.0,66,-99.99,,,0.00,1-wire,2013-01-12 19:05:00,
2013-01-12 13:10:00,30.7,20.5,29.90,WSW,241,6.0,9.0,66,-99.99,,,0.00,1-wire,2013-01-12 19:10:00,
2013-01-12 13:15:00,31.0,21.1,29.90,WSW,241,3.0,6.0,66,-99.99,,,0.00,1-wire,2013-01-12 19:15:00,
2013-01-12 13:20:00,30.2,20.2,29.90,WSW,241,7.0,11.0,66,-99.99,,,0.00,1-wire,2013-01-12 19:20:00,
2013-01-12 13:25:00,30.7,20.6,29.90,WSW,237,4.0,11.0,66,-99.99,,,0.00,1-wire,2013-01-12 19:25:00,
2013-01-12 13:30:00,30.1,19.9,29.90,WSW,237,5.0,9.0,65,-99.99,,,0.00,1-wire,2013-01-12 19:30:00,
2013-01-12 13:35:00,30.6,20.6,29.91,WSW,237,3.0,6.0,66,-99.99,,,0.00,1-wire,2013-01-12 19:35:00,
2013-01-12 13:40:00,30.9,20.6,29.92,SW,232,4.0,9.0,65,-99.99,,,0.00,1-wire,2013-01-12 19:40:00,
2013-01-12 13:45:00,30.8,20.5,29.92,SW,232,6.0,13.0,65,-99.99,,,0.00,1-wire,2013-01-12 19:45:00,
2013-01-12 13:50:00,30.3,19.9,29.91,SW,232,6.0,11.0,65,-99.99,,,0.00,1-wire,2013-01-12 19:50:00,
2013-01-12 13:55:00,30.3,20.1,29.90,SW,228,4.0,9.0,65,-99.99,,,0.00,1-wire,2013-01-12 19:55:00,
2013-01-12 14:00:00,30.9,20.7,29.91,SW,228,6.0,14.0,65,-99.99,,,0.00,1-wire,2013-01-12 20:00:00,
2013-01-12 14:06:00,30.7,20.4,29.90,WSW,245,4.0,6.0,65,-99.99,,,0.00,1-wire,2013-01-12 20:06:00,
2013-01-12 14:11:00,31.0,20.5,29.91,WSW,245,4.0,9.0,65,-99.99,,,0.00,1-wire,2013-01-12 20:11:00,
2013-01-12 14:16:00,30.9,20.4,29.92,WSW,245,6.0,11.0,65,-99.99,,,0.00,1-wire,2013-01-12 20:16:00,
2013-01-12 14:21:00,30.4,20.4,29.91,WSW,238,5.0,9.0,66,-99.99,,,0.00,1-wire,2013-01-12 20:21:00,
2013-01-12 14:27:00,30.7,20.7,29.92,WSW,238,7.0,14.0,66,-99.99,,,0.00,1-wire,2013-01-12 20:27:00,
2013-01-12 14:33:00,30.3,20.5,29.92,WSW,238,5.0,11.0,66,-99.99,,,0.00,1-wire,2013-01-12 20:33:00,
2013-01-12 14:38:00,30.0,20.2,29.93,WSW,245,5.0,8.0,67,-99.99,,,0.00,1-wire,2013-01-12 20:38:00,
2013-01-12 14:43:00,29.9,19.9,29.93,WSW,245,5.0,11.0,66,-99.99,,,0.00,1-wire,2013-01-12 20:43:00,
2013-01-12 14:48:00,29.9,19.7,29.93,WSW,245,5.0,12.0,65,-99.99,,,0.00,1-wire,2013-01-12 20:48:00,
2013-01-12 14:54:00,29.6,19.9,29.92,WSW,243,5.0,9.0,66,-99.99,,,0.00,1-wire,2013-01-12 20:54:00,
2013-01-12 14:59:00,29.7,19.9,29.93,WSW,243,5.0,11.0,66,-99.99,,,0.00,1-wire,2013-01-12 20:59:00,
2013-01-12 15:04:00,29.9,20.3,29.93,WSW,243,4.0,8.0,67,-99.99,,,0.00,1-wire,2013-01-12 21:04:00,
2013-01-12 15:10:00,29.9,20.1,29.93,WSW,243,4.0,6.0,66,-99.99,,,0.00,1-wire,2013-01-12 21:10:00,
2013-01-12 15:16:00,29.3,19.6,29.94,WSW,243,5.0,9.0,67,-99.99,,,0.00,1-wire,2013-01-12 21:16:00,
2013-01-12 15:21:00,29.3,19.7,29.95,West,271,6.0,11.0,67,-99.99,,,0.00,1-wire,2013-01-12 21:21:00,
2013-01-12 15:26:00,29.2,19.7,29.94,West,271,2.0,6.0,67,-99.99,,,0.00,1-wire,2013-01-12 21:26:00,
2013-01-12 15:32:00,29.2,19.7,29.94,West,271,3.0,6.0,67,-99.99,,,0.00,1-wire,2013-01-12 21:32:00,
2013-01-12 15:38:00,28.8,19.5,29.94,West,261,5.0,11.0,68,-99.99,,,0.00,1-wire,2013-01-12 21:38:00,
2013-01-12 15:44:00,28.5,19.4,29.94,West,261,7.0,12.0,68,-99.99,,,0.00,1-wire,2013-01-12 21:44:00,
2013-01-12 15:49:00,28.3,19.0,29.95,West,261,7.0,11.0,68,-99.99,,,0.00,1-wire,2013-01-12 21:49:00,
2013-01-12 15:54:00,28.2,19.0,29.96,West,263,4.0,6.0,68,-99.99,,,0.00,1-wire,2013-01-12 21:54:00,
2013-01-12 15:59:00,28.1,18.9,29.96,West,263,6.0,11.0,68,-99.99,,,0.00,1-wire,2013-01-12 21:59:00,
2013-01-12 16:05:00,28.1,19.2,29.97,West,263,4.0,9.0,69,-99.99,,,0.00,1-wire,2013-01-12 22:05:00,
2013-01-12 16:11:00,27.8,18.8,29.96,WSW,253,6.0,12.0,68,-99.99,,,0.00,1-wire,2013-01-12 22:11:00,
2013-01-12 16:16:00,28.3,19.3,29.96,WSW,253,2.0,6.0,69,-99.99,,,0.00,1-wire,2013-01-12 22:16:00,
2013-01-12 16:21:00,27.9,18.8,29.97,WSW,242,7.0,14.0,68,-99.99,,,0.00,1-wire,2013-01-12 22:21:00,
2013-01-12 16:26:00,28.2,19.1,29.97,WSW,242,5.0,9.0,68,-99.99,,,0.00,1-wire,2013-01-12 22:26:00,
2013-01-12 16:32:00,28.2,19.6,29.97,WSW,242,3.0,6.0,69,-99.99,,,0.00,1-wire,2013-01-12 22:32:00,
2013-01-12 16:37:00,27.9,19.2,29.96,WSW,240,6.0,9.0,69,-99.99,,,0.00,1-wire,2013-01-12 22:37:00,
2013-01-12 16:42:00,27.7,18.7,29.97,WSW,240,4.0,9.0,69,-99.99,,,0.00,1-wire,2013-01-12 22:42:00,
2013-01-12 16:47:00,27.5,18.0,29.97,WSW,240,7.0,16.0,67,-99.99,,,0.00,1-wire,2013-01-12 22:47:00,
2013-01-12 16:53:00,27.0,17.6,29.97,WSW,247,5.0,9.0,67,-99.99,,,0.00,1-wire,2013-01-12 22:53:00,
2013-01-12 16:58:00,26.7,17.7,29.96,WSW,247,4.0,8.0,68,-99.99,,,0.00,1-wire,2013-01-12 22:58:00,
2013-01-12 17:04:00,27.2,18.1,29.95,WSW,247,3.0,6.0,68,-99.99,,,0.00,1-wire,2013-01-12 23:04:00,
2013-01-12 17:09:00,27.2,17.8,29.95,West,260,3.0,6.0,67,-99.99,,,0.00,1-wire,2013-01-12 23:09:00,
2013-01-12 17:14:00,26.9,17.7,29.95,West,260,3.0,6.0,68,-99.99,,,0.00,1-wire,2013-01-12 23:14:00,
2013-01-12 17:19:00,27.2,18.1,29.94,West,260,3.0,6.0,68,-99.99,,,0.00,1-wire,2013-01-12 23:19:00,
2013-01-12 17:24:00,27.3,18.4,29.94,West,270,2.0,6.0,69,-99.99,,,0.00,1-wire,2013-01-12 23:24:00,
2013-01-12 17:30:00,27.3,18.3,29.93,West,270,2.0,6.0,68,-99.99,,,0.00,1-wire,2013-01-12 23:30:00,
2013-01-12 17:36:00,26.9,18.3,29.93,West,277,3.0,8.0,70,-99.99,,,0.00,1-wire,2013-01-12 23:36:00,
2013-01-12 17:41:00,27.1,18.2,29.92,West,277,2.0,6.0,69,-99.99,,,0.00,1-wire,2013-01-12 23:41:00,
2013-01-12 17:46:00,27.2,18.2,29.92,West,277,3.0,6.0,68,-99.99,,,0.00,1-wire,2013-01-12 23:46:00,
2013-01-12 17:51:00,27.2,18.6,29.91,West,280,4.0,13.0,70,-99.99,,,0.00,1-wire,2013-01-12 23:51:00,
2013-01-12 17:56:00,27.2,18.3,29.92,West,280,2.0,6.0,69,-99.99,,,0.00,1-wire,2013-01-12 23:56:00,
2013-01-12 18:01:00,27.0,18.1,29.92,West,280,3.0,6.0,69,-99.99,,,0.00,1-wire,2013-01-13 00:01:00,
2013-01-12 18:06:00,26.8,17.7,29.91,WNW,294,3.0,6.0,68,-99.99,,,0.00,1-wire,2013-01-13 00:06:00,
2013-01-12 18:11:00,27.2,18.5,29.91,WNW,294,3.0,12.0,69,-99.99,,,0.00,1-wire,2013-01-13 00:11:00,
2013-01-12 18:16:00,26.7,17.8,29.92,WNW,294,2.0,3.0,69,-99.99,,,0.00,1-wire,2013-01-13 00:16:00,
2013-01-12 18:21:00,26.7,17.8,29.92,WNW,299,4.0,8.0,69,-99.99,,,0.00,1-wire,2013-01-13 00:21:00,
2013-01-12 18:26:00,26.9,18.2,29.92,WNW,299,3.0,8.0,69,-99.99,,,0.00,1-wire,2013-01-13 00:26:00,
2013-01-12 18:31:00,26.8,17.9,29.94,WNW,299,3.0,6.0,69,-99.99,,,0.00,1-wire,2013-01-13 00:31:00,
2013-01-12 18:36:00,26.5,17.7,29.94,WNW,296,3.0,9.0,69,-99.99,,,0.00,1-wire,2013-01-13 00:36:00,
2013-01-12 18:42:00,26.7,17.5,29.94,WNW,296,4.0,6.0,68,-99.99,,,0.00,1-wire,2013-01-13 00:42:00,
2013-01-12 18:47:00,27.2,17.9,29.93,WNW,296,1.0,3.0,68,-99.99,,,0.00,1-wire,2013-01-13 00:47:00,
2013-01-12 18:52:00,27.2,18.1,29.94,NW,312,0.0,0.0,68,-99.99,,,0.00,1-wire,2013-01-13 00:52:00,
2013-01-12 18:57:00,27.0,18.0,29.94,NW,312,2.0,5.0,68,-99.99,,,0.00,1-wire,2013-01-13 00:57:00,
2013-01-12 19:03:00,26.9,17.8,29.95,NW,312,1.0,3.0,68,-99.99,,,0.00,1-wire,2013-01-13 01:03:00,
2013-01-12 19:09:00,27.3,18.5,29.94,WNW,295,2.0,3.0,69,-99.99,,,0.00,1-wire,2013-01-13 01:09:00,
2013-01-12 19:14:00,27.2,18.0,29.94,WNW,295,2.0,5.0,68,-99.99,,,0.00,1-wire,2013-01-13 01:14:00,
2013-01-12 19:19:00,27.2,18.1,29.95,WNW,295,4.0,8.0,68,-99.99,,,0.00,1-wire,2013-01-13 01:19:00,
2013-01-12 19:24:00,27.2,18.5,29.96,WNW,295,1.0,3.0,69,-99.99,,,0.00,1-wire,2013-01-13 01:24:00,
2013-01-12 19:30:00,27.0,18.2,29.97,WNW,295,2.0,6.0,69,-99.99,,,0.00,1-wire,2013-01-13 01:30:00,
2013-01-12 19:36:00,26.9,18.1,29.97,WNW,294,3.0,6.0,69,-99.99,,,0.00,1-wire,2013-01-13 01:36:00,
2013-01-12 19:41:00,26.8,17.9,29.97,WNW,294,1.0,6.0,69,-99.99,,,0.00,1-wire,2013-01-13 01:41:00,
2013-01-12 19:46:00,26.4,17.6,29.98,WNW,294,3.0,6.0,69,-99.99,,,0.00,1-wire,2013-01-13 01:46:00,
2013-01-12 19:52:00,26.2,17.5,29.99,WNW,285,2.0,3.0,69,-99.99,,,0.00,1-wire,2013-01-13 01:52:00,
2013-01-12 19:57:00,26.1,17.4,29.97,WNW,285,5.0,10.0,69,-99.99,,,0.00,1-wire,2013-01-13 01:57:00,
2013-01-12 20:02:00,26.0,17.1,29.97,WNW,285,3.0,6.0,69,-99.99,,,0.00,1-wire,2013-01-13 02:02:00,
2013-01-12 20:07:00,26.0,17.1,29.97,West,277,2.0,3.0,69,-99.99,,,0.00,1-wire,2013-01-13 02:07:00,
2013-01-12 20:13:00,26.0,17.2,29.99,West,277,1.0,6.0,69,-99.99,,,0.00,1-wire,2013-01-13 02:13:00,
2013-01-12 20:18:00,26.3,17.1,29.99,West,277,2.0,6.0,68,-99.99,,,0.00,1-wire,2013-01-13 02:18:00,
2013-01-12 20:23:00,25.8,16.8,29.99,WNW,285,1.0,3.0,68,-99.99,,,0.00,1-wire,2013-01-13 02:23:00,
2013-01-12 20:28:00,26.1,17.2,29.98,WNW,285,1.0,3.0,68,-99.99,,,0.00,1-wire,2013-01-13 02:28:00,
2013-01-12 20:34:00,25.9,17.2,29.99,WNW,285,2.0,5.0,69,-99.99,,,0.00,1-wire,2013-01-13 02:34:00,
2013-01-12 20:40:00,26.4,17.6,29.99,WNW,282,1.0,3.0,69,-99.99,,,0.00,1-wire,2013-01-13 02:40:00,
2013-01-12 20:45:00,25.9,17.3,29.99,WNW,282,1.0,6.0,69,-99.99,,,0.00,1-wire,2013-01-13 02:45:00,
2013-01-12 20:50:00,25.9,17.4,30.00,WNW,282,2.0,3.0,70,-99.99,,,0.00,1-wire,2013-01-13 02:50:00,
2013-01-12 20:55:00,25.8,17.3,30.00,WNW,294,1.0,3.0,70,-99.99,,,0.00,1-wire,2013-01-13 02:55:00,
2013-01-12 21:00:00,25.9,17.5,30.01,WNW,294,3.0,6.0,70,-99.99,,,0.00,1-wire,2013-01-13 03:00:00,
2013-01-12 21:05:00,25.8,17.3,30.01,WNW,294,1.0,3.0,70,-99.99,,,0.00,1-wire,2013-01-13 03:05:00,
2013-01-12 21:10:00,25.3,16.8,30.00,WNW,299,4.0,6.0,69,-99.99,,,0.00,1-wire,2013-01-13 03:10:00,
2013-01-12 21:15:00,25.2,16.7,29.99,WNW,299,3.0,6.0,70,-99.99,,,0.00,1-wire,2013-01-13 03:15:00,
2013-01-12 21:20:00,25.5,17.4,29.98,WNW,299,1.0,3.0,71,-99.99,,,0.00,1-wire,2013-01-13 03:20:00,
2013-01-12 21:25:00,25.3,17.5,29.97,West,275,2.0,3.0,72,-99.99,,,0.00,1-wire,2013-01-13 03:25:00,
2013-01-12 21:30:00,25.6,17.6,29.97,West,275,1.0,3.0,71,-99.99,,,0.00,1-wire,2013-01-13 03:30:00,
2013-01-12 21:35:00,25.3,17.5,29.97,West,275,2.0,3.0,72,-99.99,,,0.00,1-wire,2013-01-13 03:35:00,
2013-01-12 21:40:00,25.7,17.8,29.95,West,280,0.0,3.0,72,-99.99,,,0.00,1-wire,2013-01-13 03:40:00,
2013-01-12 21:45:00,25.2,17.3,29.96,West,280,1.0,3.0,72,-99.99,,,0.00,1-wire,2013-01-13 03:45:00,
2013-01-12 21:50:00,24.7,17.3,29.97,West,280,1.0,3.0,73,-99.99,,,0.00,1-wire,2013-01-13 03:50:00,
2013-01-12 21:55:00,24.6,16.8,29.97,WNW,287,2.0,3.0,72,-99.99,,,0.00,1-wire,2013-01-13 03:55:00,
2013-01-12 22:00:00,24.8,17.0,29.96,WNW,287,1.0,3.0,72,-99.99,,,0.00,1-wire,2013-01-13 04:00:00,
2013-01-12 22:06:00,24.3,16.0,29.96,WNW,289,2.0,6.0,70,-99.99,,,0.00,1-wire,2013-01-13 04:06:00,
2013-01-12 22:11:00,24.5,16.2,29.96,WNW,289,1.0,3.0,70,-99.99,,,0.00,1-wire,2013-01-13 04:11:00,
2013-01-12 22:16:00,24.0,15.8,29.96,WNW,289,2.0,6.0,70,-99.99,,,0.00,1-wire,2013-01-13 04:16:00,
2013-01-12 22:21:00,23.8,15.7,29.96,WNW,293,1.0,3.0,71,-99.99,,,0.00,1-wire,2013-01-13 04:21:00,
2013-01-12 22:26:00,23.5,15.7,29.95,WNW,293,4.0,9.0,72,-99.99,,,0.00,1-wire,2013-01-13 04:26:00,
2013-01-12 22:32:00,23.6,16.5,29.94,WNW,293,2.0,3.0,74,-99.99,,,0.00,1-wire,2013-01-13 04:32:00,
2013-01-12 22:37:00,23.2,16.4,29.94,WNW,299,1.0,3.0,75,-99.99,,,0.00,1-wire,2013-01-13 04:37:00,
2013-01-12 22:42:00,23.0,16.9,29.94,WNW,299,1.0,6.0,77,-99.99,,,0.00,1-wire,2013-01-13 04:42:00,
2013-01-12 22:47:00,22.8,16.9,29.93,WNW,299,3.0,6.0,78,-99.99,,,0.00,1-wire,2013-01-13 04:47:00,
2013-01-12 22:52:00,22.7,17.1,29.93,WNW,298,3.0,6.0,79,-99.99,,,0.00,1-wire,2013-01-13 04:52:00,
2013-01-12 22:57:00,22.6,17.3,29.92,WNW,298,3.0,8.0,80,-99.99,,,0.00,1-wire,2013-01-13 04:57:00,
2013-01-12 23:02:00,22.8,17.6,29.93,WNW,298,4.0,8.0,80,-99.99,,,0.00,1-wire,2013-01-13 05:02:00,
2013-01-12 23:03:00,22.7,17.4,29.93,WNW,298,3.0,6.0,80,-99.99,,,0.00,1-wire,2013-01-13 05:03:00,
2013-01-12 23:06:00,22.4,17.7,29.92,NW,311,5.0,9.0,82,-99.99,,,0.00,1-wire,2013-01-13 05:06:00,
2013-01-12 23:11:00,22.4,18.3,29.92,NW,311,3.0,8.0,84,-99.99,,,0.00,1-wire,2013-01-13 05:11:00,
2013-01-12 23:12:00,22.4,18.2,29.91,NW,311,3.0,6.0,84,-99.99,,,0.00,1-wire,2013-01-13 05:12:00,
2013-01-12 23:17:00,22.2,18.3,29.90,NW,311,2.0,6.0,85,-99.99,,,0.00,1-wire,2013-01-13 05:17:00,
2013-01-12 23:23:00,21.8,17.8,29.90,NW,323,5.0,9.0,84,-99.99,,,0.00,1-wire,2013-01-13 05:23:00,
2013-01-12 23:28:00,21.9,17.5,29.92,NW,323,5.0,9.0,83,-99.99,,,0.00,1-wire,2013-01-13 05:28:00,
2013-01-12 23:33:00,22.3,17.6,29.94,NW,323,3.0,8.0,82,-99.99,,,0.00,1-wire,2013-01-13 05:33:00,
2013-01-12 23:38:00,22.4,17.6,29.94,NW,315,4.0,9.0,81,-99.99,,,0.00,1-wire,2013-01-13 05:38:00,
2013-01-12 23:43:00,22.4,17.5,29.94,NW,315,2.0,6.0,81,-99.99,,,0.00,1-wire,2013-01-13 05:43:00,
2013-01-12 23:49:00,22.6,17.7,29.96,NW,315,2.0,6.0,81,-99.99,,,0.00,1-wire,2013-01-13 05:49:00,
2013-01-12 23:55:00,22.5,17.2,29.95,NW,317,1.0,6.0,80,-99.99,,,0.00,1-wire,2013-01-13 05:55:00,